| time (UTC) | temp F | wind direction | speed MPH | gust MPH | rain 1hr in | rain 24hr in | rain mn in | humidity % | barometer mb |
| 20260506044648 | 86 | 63 | 8.0 | 19.0 | 0.00 | 0.00 | 0.00 | 31 | 1015.7 |
| 20260506043045 | 84 | 117 | 8.0 | 23.0 | 0.00 | 0.00 | 0.00 | 30 | 1015.8 |
| 20260506041552 | 85 | 86 | 10.0 | 18.0 | 0.00 | 0.00 | 0.00 | 31 | 1016.0 |
| 20260506040047 | 84 | 110 | 8.0 | 19.0 | 0.00 | 0.00 | 0.00 | 30 | 1016.4 |
| 20260506034551 | 83 | 100 | 11.0 | 18.0 | 0.00 | 0.00 | 0.00 | 31 | 1016.6 |
| 20260506033047 | 82 | 87 | 15.0 | 21.0 | 0.00 | 0.00 | 0.00 | 30 | 1016.7 |
| 20260506031544 | 82 | 81 | 9.0 | 22.0 | 0.00 | 0.00 | 0.00 | 29 | 1016.9 |
| 20260506030047 | 81 | 79 | 13.0 | 20.0 | 0.00 | 0.00 | 0.00 | 29 | 1017.4 |
| 20260506024550 | 80 | 94 | 12.0 | 19.0 | 0.00 | 0.00 | 0.00 | 30 | 1017.7 |
| 20260506023047 | 80 | 139 | 13.0 | 20.0 | 0.00 | 0.00 | 0.00 | 29 | 1017.7 |
| 20260506021544 | 79 | 82 | 15.0 | 23.0 | 0.00 | 0.00 | 0.00 | 30 | 1017.9 |
| 20260506020048 | 79 | 118 | 13.0 | 22.0 | 0.00 | 0.00 | 0.00 | 29 | 1018.0 |
| 20260506014557 | 78 | 93 | 13.0 | 24.0 | 0.00 | 0.00 | 0.00 | 29 | 1018.1 |
| 20260506013049 | 77 | 102 | 13.0 | 27.0 | 0.00 | 0.00 | 0.00 | 30 | 1018.0 |
| 20260506011617 | 76 | 94 | 14.0 | 24.0 | 0.00 | 0.00 | 0.00 | 30 | 1018.1 |
| 20260506010048 | 74 | 82 | 13.0 | 25.0 | 0.00 | 0.00 | 0.00 | 31 | 1018.0 |
| 20260506004602 | 72 | 99 | 11.0 | 20.0 | 0.00 | 0.00 | 0.00 | 32 | 1017.8 |
| 20260506003049 | 71 | 100 | 11.0 | 22.0 | 0.00 | 0.00 | 0.00 | 32 | 1017.9 |
| 20260506001546 | 70 | 151 | 10.0 | 20.0 | 0.00 | 0.00 | 0.00 | 33 | 1017.7 |
| 20260506000154 | 69 | 125 | 10.0 | 22.0 | 0.00 | 0.00 | 0.00 | 34 | 1017.6 |
| 20260505234559 | 67 | 120 | 12.0 | 19.0 | 0.00 | 0.00 | 0.00 | 35 | 1017.4 |
| 20260505233059 | 66 | 128 | 10.0 | 18.0 | 0.00 | 0.00 | 0.00 | 37 | 1017.4 |
| 20260505231559 | 65 | 164 | 9.0 | 17.0 | 0.00 | 0.00 | 0.00 | 38 | 1017.5 |
| 20260505230117 | 64 | 134 | 12.0 | 17.0 | 0.00 | 0.00 | 0.00 | 38 | 1017.3 |
| 20260505224611 | 63 | 141 | 9.0 | 16.0 | 0.00 | 0.00 | 0.00 | 38 | 1017.1 |
| 20260505223222 | 63 | 136 | 8.0 | 16.0 | 0.00 | 0.00 | 0.00 | 39 | 1017.0 |
| 20260505221601 | 63 | 135 | 7.0 | 16.0 | 0.00 | 0.00 | 0.00 | 38 | 1016.9 |
| 20260505220050 | 63 | 101 | 9.0 | 15.0 | 0.00 | 0.00 | 0.00 | 38 | 1016.7 |
| 20260505214657 | 63 | 138 | 7.0 | 17.0 | 0.00 | 0.00 | 0.00 | 38 | 1016.5 |
| 20260505213100 | 63 | 131 | 10.0 | 17.0 | 0.00 | 0.00 | 0.00 | 38 | 1016.6 |
| 20260505210248 | 64 | 138 | 11.0 | 21.0 | 0.00 | 0.00 | 0.00 | 37 | 1016.4 |
| 20260505204613 | 64 | 147 | 13.0 | 20.0 | 0.00 | 0.00 | 0.00 | 36 | 1016.4 |
| 20260505203102 | 64 | 121 | 12.0 | 18.0 | 0.00 | 0.00 | 0.00 | 36 | 1016.4 |
| 20260505201620 | 64 | 172 | 10.0 | 14.0 | 0.00 | 0.00 | 0.00 | 36 | 1016.4 |
| 20260505200050 | 64 | 114 | 10.0 | 15.0 | 0.00 | 0.00 | 0.00 | 36 | 1016.4 |
| 20260505194620 | 65 | 126 | 9.0 | 16.0 | 0.00 | 0.00 | 0.00 | 36 | 1016.4 |
| 20260505193106 | 65 | 141 | 10.0 | 18.0 | 0.00 | 0.00 | 0.00 | 35 | 1016.3 |
| 20260505191612 | 65 | 170 | 10.0 | 16.0 | 0.00 | 0.00 | 0.00 | 35 | 1016.3 |
| 20260505190054 | 65 | 131 | 11.0 | 20.0 | 0.00 | 0.00 | 0.00 | 35 | 1016.3 |
| 20260505184610 | 65 | 172 | 9.0 | 16.0 | 0.00 | 0.00 | 0.00 | 34 | 1016.3 |
| 20260505183055 | 65 | 159 | 8.0 | 16.0 | 0.00 | 0.00 | 0.00 | 34 | 1016.5 |
| 20260505181624 | 66 | 139 | 9.0 | 16.0 | 0.00 | 0.00 | 0.00 | 34 | 1016.6 |
| 20260505180109 | 66 | 128 | 11.0 | 19.0 | 0.00 | 0.00 | 0.00 | 33 | 1016.6 |
| 20260505174546 | 66 | 123 | 12.0 | 18.0 | 0.00 | 0.00 | 0.00 | 33 | 1016.7 |
| 20260505173142 | 67 | 139 | 11.0 | 17.0 | 0.00 | 0.00 | 0.00 | 32 | 1016.7 |
| 20260505171704 | 67 | 117 | 12.0 | 18.0 | 0.00 | 0.00 | 0.00 | 32 | 1016.8 |
| 20260505170103 | 67 | 116 | 9.0 | 17.0 | 0.00 | 0.00 | 0.00 | 32 | 1017.0 |
| 20260505164626 | 68 | 116 | 10.0 | 18.0 | 0.00 | 0.00 | 0.00 | 31 | 1016.9 |
| 20260505163051 | 68 | 150 | 12.0 | 18.0 | 0.00 | 0.00 | 0.00 | 31 | 1017.0 |
| 20260505161554 | 68 | 131 | 10.0 | 17.0 | 0.00 | 0.00 | 0.00 | 30 | 1017.1 |
| 20260505160116 | 68 | 135 | 12.0 | 17.0 | 0.00 | 0.00 | 0.00 | 30 | 1017.1 |
| 20260505153132 | 69 | 153 | 9.0 | 15.0 | 0.00 | 0.00 | 0.00 | 29 | 1017.2 |
| 20260505151551 | 69 | 155 | 7.0 | 15.0 | 0.00 | 0.00 | 0.00 | 29 | 1017.4 |
| 20260505150108 | 69 | 151 | 8.0 | 15.0 | 0.00 | 0.00 | 0.00 | 28 | 1017.6 |
| 20260505130106 | 71 | 151 | 7.0 | 15.0 | 0.00 | 0.00 | 0.00 | 25 | 1018.1 |
| 20260505124611 | 71 | 147 | 9.0 | 13.0 | 0.00 | 0.00 | 0.00 | 24 | 1018.1 |
| 20260505123102 | 71 | 147 | 7.0 | 13.0 | 0.00 | 0.00 | 0.00 | 24 | 1018.2 |
| 20260505121621 | 71 | 124 | 5.0 | 12.0 | 0.00 | 0.00 | 0.00 | 24 | 1018.3 |
| 20260505120051 | 72 | 159 | 6.0 | 10.0 | 0.00 | 0.00 | 0.00 | 24 | 1018.2 |
| 20260505114548 | 72 | 153 | 4.0 | 9.0 | 0.00 | 0.00 | 0.00 | 23 | 1017.9 |
| 20260505113048 | 73 | 162 | 6.0 | 10.0 | 0.00 | 0.00 | 0.00 | 23 | 1017.9 |
| 20260505111556 | 73 | 128 | 4.0 | 9.0 | 0.00 | 0.00 | 0.00 | 23 | 1017.8 |
| 20260505101557 | 75 | 133 | 5.0 | 10.0 | 0.00 | 0.00 | 0.00 | 21 | 1017.2 |
| 20260505100132 | 75 | 125 | 4.0 | 10.0 | 0.00 | 0.00 | 0.00 | 20 | 1017.0 |
| 20260505094553 | 76 | 151 | 5.0 | 10.0 | 0.00 | 0.00 | 0.00 | 20 | 1016.9 |
| 20260505093054 | 77 | 95 | 7.0 | 11.0 | 0.00 | 0.00 | 0.00 | 19 | 1016.8 |
| 20260505091611 | 78 | 117 | 5.0 | 11.0 | 0.00 | 0.00 | 0.00 | 19 | 1016.7 |
| 20260505090059 | 78 | 125 | 9.0 | 15.0 | 0.00 | 0.00 | 0.00 | 19 | 1016.5 |
| 20260505084547 | 79 | 117 | 7.0 | 12.0 | 0.00 | 0.00 | 0.00 | 18 | 1016.6 |
| 20260505083051 | 79 | 120 | 7.0 | 15.0 | 0.00 | 0.00 | 0.00 | 18 | 1016.5 |
| 20260505081551 | 80 | 151 | 9.0 | 16.0 | 0.00 | 0.00 | 0.00 | 18 | 1016.4 |
| 20260505080054 | 81 | 131 | 7.0 | 14.0 | 0.00 | 0.00 | 0.00 | 17 | 1016.3 |
| 20260505074547 | 81 | 114 | 7.0 | 13.0 | 0.00 | 0.00 | 0.00 | 18 | 1016.3 |
| 20260505073058 | 81 | 144 | 8.0 | 15.0 | 0.00 | 0.00 | 0.00 | 17 | 1016.1 |
| 20260505071550 | 81 | 137 | 10.0 | 17.0 | 0.00 | 0.00 | 0.00 | 17 | 1016.2 |
| 20260505070049 | 82 | 140 | 8.0 | 16.0 | 0.00 | 0.00 | 0.00 | 18 | 1016.2 |
| 20260505064548 | 81 | 87 | 4.0 | 14.0 | 0.00 | 0.00 | 0.00 | 18 | 1016.0 |
| 20260505063052 | 82 | 81 | 7.0 | 13.0 | 0.00 | 0.00 | 0.00 | 17 | 1016.0 |
| 20260505061548 | 82 | 162 | 8.0 | 14.0 | 0.00 | 0.00 | 0.00 | 17 | 1016.3 |
| 20260505060049 | 82 | 131 | 8.0 | 14.0 | 0.00 | 0.00 | 0.00 | 17 | 1016.4 |
| 20260505054615 | 81 | 226 | 8.0 | 14.0 | 0.00 | 0.00 | 0.00 | 18 | 1016.8 |
| 20260505053053 | 81 | 74 | 10.0 | 21.0 | 0.00 | 0.00 | 0.00 | 18 | 1016.8 |
| 20260505051549 | 80 | 147 | 6.0 | 15.0 | 0.00 | 0.00 | 0.00 | 20 | 1016.8 |